Regional Weather Roundup
Issued by NWS Boston, MA

Current Version | Previous Version | Text Only | Print | Product List | Glossary Off
Versions: 1 2 3 4 5 6 7 8 9 10 11 12 13 14 15 16 17 18 19 20 21 22 23 24 25 26 27 28 29 30 31 32 33 34 35 36 37 38 39 40 41 42 43 44 45 46 47 48 49 50

000
ASUS41 KBOX 221210
RWRBOX

REGIONAL WEATHER ROUNDUP
NATIONAL WEATHER SERVICE TAUNTON MA
800 AM EDT FRI AUG 22 2014

NOTE:  "FAIR" INDICATES FEW OR NO CLOUDS BELOW 12,000 FEET WITH NO
SIGNIFICANT WEATHER AND/OR OBSTRUCTIONS TO VISIBILITY.  THE FOLLOWING
OBSERVATION LOCATIONS DO NOT REPORT PRESENT WEATHER...PROVINCETOWN...
SMITHFIELD...BLOCK ISLAND...KEENE...AND OXFORD.

MAZALL-221300-
EASTERN MASSACHUSETTS

CITY           SKY/WX    TMP DP  RH WIND       PRES   REMARKS
BOSTON         CLOUDY    64  61  90 N9        30.09S
6HR MIN TEMP:  63; 6HR MAX TEMP:  67; 6HR PCP:  0.08;

BEVERLY        CLOUDY    62  60  93 N6        30.10R
LAWRENCE       LGT RAIN  61  59  93 NE9       30.12F
BEDFORD        CLOUDY    60  59  96 N6        30.09S
BLUE HILL        N/A     61  61 100 NE9       30.09R
NORWOOD        CLOUDY    64  60  87 NE5       30.09S
MARSHFIELD     DRIZZLE   66  66 100 N3        30.10R
PLYMOUTH       CLOUDY    65  61  87 N6        30.08S
TAUNTON        CLOUDY    66  64  93 NE5       30.07S
NEW BEDFORD    CLOUDY    65  63  93 N6        30.06S
$$

MAZALL-221300-
CAPE COD AND THE ISLANDS

CITY           SKY/WX    TMP DP  RH WIND       PRES   REMARKS
FALMOUTH       CLOUDY    64  64 100 N8        30.07F
HYANNIS        CLOUDY    67  64  90 N7        30.06S
CHATHAM        PTSUNNY   68  63  84 NE5       30.08S
PROVINCETOWN   PTSUNNY   70  64  83 MISG      30.08F
NANTUCKET      CLOUDY    63  63 100 NE8       30.05F FOG
MARTHAS VNYRD  CLOUDY    67  64  90 NE8       30.06S
$$

MAZALL-221300-
CENTRAL AND WESTERN MASSACHUSETTS

CITY           SKY/WX    TMP DP  RH WIND       PRES   REMARKS
WORCESTER      CLOUDY    58  57  97 NE9       30.10F
6HR MIN TEMP:  58; 6HR MAX TEMP:  59;

FITCHBURG      CLOUDY    62  58  86 NW3       30.12S
ORANGE         CLOUDY    61  59  93 CALM      30.10S
SPRINGFIELD    CLOUDY    64  61  88 VRB2      30.08R
WESTFIELD      CLOUDY    65  61  87 NE3       30.08R
NORTH ADAMS    CLOUDY    62  59  90 E7        30.07R
PITTSFIELD     CLOUDY    61  59  93 E5        30.06S
$$

RIZALL-221300-
RHODE ISLAND

CITY           SKY/WX    TMP DP  RH WIND       PRES   REMARKS
PROVIDENCE     CLOUDY    66  63  90 NE10      30.08S
6HR MIN TEMP:  64; 6HR MAX TEMP:  67; 6HR PCP:  0.03;

NEWPORT        CLOUDY    66  63  90 NE8       30.06S
BLOCK ISLAND   CLOUDY    66  63  88 NE7       30.06R
SMITHFIELD     CLOUDY    63  55  77 N8        30.09R
WESTERLY       CLOUDY    65  61  87 N6        30.07R
$$

CTZALL-221300-
CONNECTICUT

CITY           SKY/WX    TMP DP  RH WIND       PRES   REMARKS
BRADLEY INTL   CLOUDY    65  59  81 NE5       30.07R
6HR MIN TEMP:  65; 6HR MAX TEMP:  67; 6HR PCP:  0.06;

HARTFORD       CLOUDY    65  58  78 NE6       30.06S
BRIDGEPORT     MOSUNNY   69  62  78 NE10      30.05R
DANBURY        CLOUDY    65  61  87 E6        30.06S
GROTON         CLOUDY    65  62  90 NE6       30.06R
NEW HAVEN      MOSUNNY   68  59  73 E9        30.05S
CHESTER        PTSUNNY   63  63 100 NE5       30.08R
MERIDEN        CLOUDY    67  62  84 NE6       30.06S
WILLIMANTIC    CLOUDY    64  59  83 NE6       30.08S
OXFORD         CLOUDY    64  57  77 E5        30.08S
$$

MEZ002-015-021-024-NHZ003-005-008-011-012-014-VTZ005-008-221300-
NORTHERN NEW ENGLAND

CITY           SKY/WX    TMP DP  RH WIND       PRES   REMARKS
PORTLAND ME    CLOUDY    63  59  87 NE5       30.14S
6HR MIN TEMP:  62; 6HR MAX TEMP:  63;

BANGOR ME      PTSUNNY   64  58  80 NE5       30.17R
CONCORD NH     CLOUDY    59  57  93 CALM      30.12F
MANCHESTER NH  CLOUDY    60  58  92 N3        30.10S
NASHUA NH      PTSUNNY   61  59  94 CALM      30.12S
PORTSMOUTH NH  LGT RAIN  62  61  96 NE6       30.11S VSB 3/4
JAFFREY NH     RAIN      58  57  97 VRB3      30.13S FOG
KEENE NH       CLOUDY    61  52  72 N5        30.11F
BURLINGTON VT  CLOUDY    63  58  83 E3        30.08R
MT. WASHINGTON FOG       43  43 100 SE16        N/A  VSB 1/16
$$

NYZ052-076-221300-
EASTERN NEW YORK

CITY           SKY/WX    TMP DP  RH WIND       PRES   REMARKS
ALBANY         CLOUDY    67  63  87 S6        30.03S
6HR MIN TEMP:  66; 6HR MAX TEMP:  67; 6HR PCP:  0.07;

NEW YORK CITY  MOSUNNY   69  64  84 E8        30.02R
6HR MIN TEMP:  68; 6HR MAX TEMP:  69; 6HR PCP: TRACE;

$$

ANZALL-221300-
MARINE OBSERVATIONS

STATION/POSITION TIME  TEMP    WIND        PRES    VSBY  WAVE
                       AIR SEA DIR/SP/G                  HT/PER
                 (UTC) (F)     (DEG/KT/KT) (MB)    (MI)  (FT/S)
BOSTON BUOY      1150   66 66   70/  4/  6 1019.1R         2/ 5
BUZZARDS BAY     1200           50/ 13/ 14 1018.5S
NANTUCKET SOUND  1150   67 70   50/ 10/ 12 1017.7F         1
MASS BAY-STELLWA 1104   67 67   30/  8/  8   N/A    1 7/8  2/ 5
ISLE OF SHOALS   1200   63      40/ 12/ 14 1019.1R
S OF BLOCK IS    1108      68                N/A           3/ 8
$$

......................KEY.........................
  SKY/WX - SKY CONDITION/PRESENT WEATHER
  TMP    - TEMPERATURE IN FAHRENHEIT
  DWPT   - DEWPOINT IN FAHRENHEIT
  RH     - RELATIVE HUMIDITY IN PERCENT
  WIND   - DIRECTION AND SPEED IN MPH
  PRES   - MEAN SEA LEVEL PRESSURE IN INCHES OF HG
  WCI    - WIND CHILL INDEX
  VSB    - VISIBILITY IN MILES
  HX     - HEAT INDEX
  TC     - TEMPERATURE IN CELSIUS
  VRB    - VARIABLE WIND DIRECTION
  N/A    - NOT AVAILABLE


USA.gov is the U.S. government's official web portal to all federal, state and local government web resources and services.